Weather History for KHYR - February, 2012

Change the Weather History Date:

Wednesday, February 29, 2012

  Actual Average Record
Temperature  
Mean Temperature 30 °F -  
Max Temperature 33 °F - 50 °F (2004)
Min Temperature 28 °F - 10 °F (2008)
Degree Days  
Heating Degree Days 34    
Moisture  
Dew Point 28 °F    
Average Humidity 88    
Maximum Humidity 93    
Minimum Humidity 81    
Precipitation  
Precipitation 0.60 in - - ()
Sea Level Pressure  
Sea Level Pressure 29.52 in    
Wind  
Wind Speed 13 mph (ENE)    
Max Wind Speed 21 mph    
Max Gust Speed 34 mph    
Visibility 3 miles    
Events Fog , Snow    
Averages and records for this station are not official NWS values.
T = Trace of Precipitation, MM = Missing Value Source: NWS Daily Summary

Daily Weather History Graph

Daily Weather History Graph

Search for Another Location

Airport or City:

Trip Planner

Search our weather history database for the weather conditions in past years. The results will help you decide how hot, cold, wet, or windy it might be!

Date:

Astronomy

Feb. 29, 2012 Rise Set
Actual Time 6:45 AM CST 5:51 PM CST
Civil Twilight 6:15 AM CST 6:21 PM CST
Nautical Twilight 5:40 AM CST 6:56 PM CST
Astronomical Twilight 5:06 AM CST 7:31 PM CST
Moon 10:11 AM CST (2/29) 1:03 AM CST (2/29)
Length of Visible Light 12h 06m
Length of Day
11h 06m
Waxing Crescent, 47% of the Moon is Illuminated
Feb 29
Waxing Crescent
Feb 29
First Quarter
Mar 8
Full
Mar 14
Last Quarter
Mar 22
New

Hourly Weather History & Observations

Time (CST) Temp. Windchill Dew Point Humidity Pressure Visibility Wind Dir Wind Speed Gust Speed Precip Events Conditions
12:14 AM 28.4 °F 18.0 °F 26.6 °F 93% 29.78 in 1.0 mi East 12.7 mph 18.4 mph 0.01 in Snow Light Snow
12:22 AM 30.2 °F 20.8 °F 26.6 °F 86% 29.77 in 0.8 mi East 11.5 mph 20.7 mph 0.02 in Snow Light Snow
12:29 AM 30.2 °F 20.2 °F 26.6 °F 86% 29.77 in 0.8 mi East 12.7 mph - 0.02 in Snow Light Snow
12:43 AM 30.2 °F 19.8 °F 26.6 °F 86% 29.76 in 0.8 mi East 13.8 mph - 0.03 in Snow Light Snow
12:53 AM 30.0 °F 20.0 °F 26.1 °F 85% 29.80 in 1.0 mi East 12.7 mph 19.6 mph 0.04 in Snow Light Snow
1:02 AM 30.2 °F 21.3 °F 26.6 °F 86% 29.74 in 1.5 mi East 10.4 mph - 0.00 in Snow Light Snow
1:11 AM 30.2 °F 20.2 °F 26.6 °F 86% 29.74 in 0.8 mi East 12.7 mph - 0.01 in Snow Light Snow
1:29 AM 30.2 °F 20.2 °F 26.6 °F 86% 29.72 in 0.5 mi East 12.7 mph 23.0 mph 0.03 in Fog , Snow Snow
1:53 AM 30.0 °F 21.1 °F 27.0 °F 88% 29.75 in 0.8 mi East 10.4 mph 20.7 mph 0.05 in Snow Light Snow
2:03 AM 30.2 °F 20.2 °F 26.6 °F 86% 29.68 in 0.8 mi East 12.7 mph - 0.01 in Snow Light Snow
2:51 AM 30.2 °F 19.8 °F 26.6 °F 86% 29.63 in 1.2 mi East 13.8 mph 20.7 mph 0.04 in Snow Light Snow
2:53 AM 30.9 °F 20.7 °F 27.0 °F 85% 29.67 in 1.2 mi East 13.8 mph 20.7 mph 0.04 in Snow Light Snow
3:23 AM 30.2 °F 18.1 °F 28.4 °F 93% 29.58 in 1.2 mi East 18.4 mph 32.2 mph 0.01 in Snow Light Snow
3:38 AM 32.0 °F 20.5 °F 28.4 °F 87% 29.56 in 3.0 mi East 18.4 mph 28.8 mph 0.01 in Snow Light Snow
3:53 AM 32.0 °F 21.2 °F 28.0 °F 85% 29.59 in 2.5 mi East 16.1 mph 27.6 mph 0.01 in Snow Light Snow
3:59 AM 32.0 °F 21.6 °F 28.4 °F 87% 29.54 in 1.5 mi East 15.0 mph 27.6 mph 0.00 in Snow Light Snow
4:10 AM 32.0 °F 20.8 °F 28.4 °F 87% 29.53 in 1.0 mi East 17.3 mph 26.5 mph 0.01 in Snow Light Snow
4:19 AM 30.2 °F 18.9 °F 28.4 °F 93% 29.52 in 0.8 mi East 16.1 mph 24.2 mph 0.01 in Snow Light Snow
4:24 AM 32.0 °F 20.8 °F 28.4 °F 87% 29.52 in 1.2 mi East 17.3 mph 25.3 mph 0.01 in Snow Light Snow
4:38 AM 32.0 °F 22.5 °F 28.4 °F 87% 29.51 in 0.8 mi East 12.7 mph 24.2 mph 0.01 in Snow Light Snow
4:53 AM 30.9 °F 19.4 °F 28.0 °F 89% 29.55 in 1.2 mi East 17.3 mph 23.0 mph 0.02 in Snow Light Snow
5:10 AM 30.2 °F 20.8 °F 28.4 °F 93% 29.48 in 1.2 mi East 11.5 mph 23.0 mph 0.01 in Snow Light Snow
5:28 AM 32.0 °F 22.1 °F 28.4 °F 87% 29.48 in 1.0 mi East 13.8 mph 21.9 mph 0.04 in Snow Light Snow
5:36 AM 32.0 °F 22.1 °F 28.4 °F 87% 29.47 in 0.5 mi East 13.8 mph - 0.05 in Fog , Snow Snow
5:45 AM 30.2 °F 20.2 °F 28.4 °F 93% 29.46 in 0.2 mi East 12.7 mph 21.9 mph 0.07 in Fog , Snow Heavy Snow
6:06 AM 30.2 °F 20.2 °F 28.4 °F 93% 29.46 in 0.2 mi East 12.7 mph 21.9 mph 0.03 in Fog , Snow Heavy Snow
6:33 AM 32.0 °F 22.1 °F 28.4 °F 87% 29.44 in 0.5 mi East 13.8 mph 21.9 mph 0.07 in Fog , Snow Snow
6:48 AM 32.0 °F 22.1 °F 28.4 °F 87% 29.45 in 0.2 mi East 13.8 mph - 0.11 in Fog , Snow Heavy Snow
6:53 AM 32.0 °F 20.8 °F 28.9 °F 88% 29.49 in 0.2 mi East 17.3 mph 24.2 mph 0.12 in Fog , Snow Heavy Snow
7:02 AM 32.0 °F 21.6 °F 28.4 °F 87% 29.45 in 0.2 mi East 15.0 mph 24.2 mph 0.02 in Fog , Snow Heavy Snow
7:53 AM 33.1 °F 22.2 °F 30.0 °F 89% 29.45 in 0.2 mi ENE 17.3 mph 23.0 mph 0.14 in Fog , Snow Heavy Snow
8:16 AM 33.8 °F 22.8 °F 30.2 °F 87% 29.39 in 0.2 mi ENE 18.4 mph 29.9 mph 0.03 in Fog , Snow Heavy Snow
8:24 AM 33.8 °F 22.2 °F 30.2 °F 87% 29.39 in 0.2 mi East 20.7 mph 34.5 mph 0.03 in Fog , Snow Heavy Snow
8:53 AM 33.1 °F 22.6 °F 30.9 °F 92% 29.42 in 0.2 mi East 16.1 mph 27.6 mph 0.06 in Fog , Snow Snow
9:51 AM 33.8 °F 24.3 °F 30.2 °F 87% 29.36 in 0.2 mi ENE 13.8 mph 24.2 mph 0.04 in Fog , Snow Heavy Snow
9:53 AM 33.1 °F 23.9 °F 30.0 °F 89% 29.40 in 0.2 mi ENE 12.7 mph 24.2 mph 0.04 in Fog , Snow Heavy Snow
10:05 AM 33.8 °F 24.8 °F 30.2 °F 87% 29.36 in 0.2 mi ENE 12.7 mph 20.7 mph 0.01 in Fog , Snow Snow
10:53 AM 32.0 °F 22.1 °F 30.0 °F 92% 29.41 in 0.2 mi NE 13.8 mph 21.9 mph 0.03 in Fog , Snow Snow
11:53 AM 32.0 °F 22.5 °F 30.0 °F 92% 29.41 in 0.5 mi NE 12.7 mph 19.6 mph 0.03 in Fog , Snow Snow
12:08 PM 32.0 °F 23.0 °F 30.2 °F 93% 29.37 in 0.5 mi NE 11.5 mph 21.9 mph 0.00 in Fog , Snow Snow
12:53 PM 32.0 °F 24.2 °F 30.0 °F 92% 29.41 in 0.8 mi NE 9.2 mph 18.4 mph 0.01 in Snow Light Snow
1:02 PM 32.0 °F 23.6 °F 30.2 °F 93% 29.36 in 0.8 mi NE 10.4 mph 18.4 mph 0.00 in Snow Light Snow
1:09 PM 32.0 °F 23.0 °F 30.2 °F 93% 29.36 in 1.0 mi NE 11.5 mph 21.9 mph 0.00 in Snow Light Snow
1:13 PM 32.0 °F 23.6 °F 30.2 °F 93% 29.36 in 1.2 mi NE 10.4 mph 21.9 mph 0.00 in Snow Light Snow
1:31 PM 32.0 °F 23.0 °F 28.4 °F 87% 29.37 in 1.5 mi NE 11.5 mph 21.9 mph 0.00 in Snow Light Snow
1:43 PM 32.0 °F 23.0 °F 28.4 °F 87% 29.37 in 1.5 mi NE 11.5 mph 20.7 mph 0.01 in Snow Light Snow
1:53 PM 33.1 °F 24.4 °F 30.0 °F 89% 29.41 in 1.8 mi NE 11.5 mph 20.7 mph 0.01 in Snow Light Snow
2:09 PM 33.8 °F 24.3 °F 30.2 °F 87% 29.37 in 2.5 mi NE 13.8 mph 23.0 mph 0.00 in Snow Light Snow
2:17 PM 33.8 °F 24.8 °F 28.4 °F 81% 29.37 in 4.0 mi NE 12.7 mph 23.0 mph 0.00 in Snow Light Snow
2:35 PM 33.8 °F 25.8 °F 28.4 °F 81% 29.38 in 2.5 mi NE 10.4 mph 20.7 mph 0.00 in Snow Light Snow
2:53 PM 32.0 °F 23.6 °F 28.9 °F 88% 29.43 in 2.0 mi NE 10.4 mph - 0.00 in Snow Light Snow
3:27 PM 32.0 °F 23.6 °F 28.4 °F 87% 29.41 in 4.0 mi NE 10.4 mph 18.4 mph 0.00 in Snow Light Snow
3:53 PM 30.9 °F 21.7 °F 28.0 °F 89% 29.47 in 4.0 mi NNE 11.5 mph 19.6 mph 0.00 in Snow Light Snow
4:21 PM 30.2 °F 21.3 °F 26.6 °F 86% 29.44 in 9.0 mi NE 10.4 mph 19.6 mph 0.00 in   Overcast
4:53 PM 30.9 °F 22.2 °F 26.1 °F 82% 29.51 in 10.0 mi NNE 10.4 mph 20.7 mph 0.00 in   Overcast
5:08 PM 30.2 °F 22.6 °F 26.6 °F 86% 29.47 in 10.0 mi NE 8.1 mph 20.7 mph N/A   Overcast
5:53 PM 30.0 °F 21.7 °F 26.1 °F 85% 29.53 in 10.0 mi NNE 9.2 mph - N/A   Overcast
6:35 PM 28.4 °F 19.7 °F 24.8 °F 86% 29.50 in 10.0 mi NNE 9.2 mph 18.4 mph N/A   Overcast
6:53 PM 28.9 °F 22.8 °F 24.1 °F 82% 29.56 in 10.0 mi NE 5.8 mph - N/A   Overcast
7:53 PM 28.9 °F 21.9 °F 25.0 °F 85% 29.59 in 10.0 mi NE 6.9 mph - N/A   Overcast
8:48 PM 28.4 °F 22.2 °F 24.8 °F 86% 29.57 in 10.0 mi NNE 5.8 mph - N/A   Overcast
8:53 PM 28.9 °F 23.9 °F 25.0 °F 85% 29.61 in 10.0 mi NNE 4.6 mph - N/A   Overcast
9:53 PM 28.9 °F 22.8 °F 26.1 °F 89% 29.64 in 10.0 mi NNE 5.8 mph - N/A   Overcast
10:08 PM 28.4 °F 24.6 °F 26.6 °F 93% 29.61 in 10.0 mi North 3.5 mph - N/A   Overcast
10:53 PM 28.9 °F - 26.1 °F 89% 29.68 in 9.0 mi Calm Calm - N/A   Overcast
11:44 PM 28.4 °F 24.6 °F 26.6 °F 93% 29.65 in 10.0 mi Variable 3.5 mph - N/A   Overcast